SCP
0 0 0 0 0 0 0 0 0 0 0 0 0 0 0 0 0 0 0 0 0 0 0 0 0 0 0 0 0 0 0 0 0 0 0 0 0 0 0 0 0 0 0
0 0 0 0 0 0 0 0 0 0 0 0 0 0 0 0 0 0 0 0 0 0 0 0 0 0 0 0 0 0 0 0 0 0 0 0 0 0 0 0 0 0 0
0 0 0 0 0 0 0 0 0 0 0 0 0 0 0 0 0 0 0 0 0 0 0 0 0 0 0 0 0 0 0 0 0 0 0 0 0 0 0 0 0 0 0
0 0 0 0 0 0 0 0 0 0 0 0 0 0 0 0 0 0 0 0 0 0 0 0 0 0 0 0 0 0 0 0 0 0 0 0 0 0 0 0 0 0 0
0 0 0 0 0 0 0 0 0 0 0 0 0 0 0 0 0 0 0 0 0 0 0 0 0 0 0 0 0 0 0 0 0 0 0 0 0 0 0 0 0 0 0
0 0 0 0 0 0 0 0 0 0 0 0 0 0 0 0 0 0 0 0 0 0 0 0 0 0 0 0 0 0 0 0 0 0 0 0 0 0 0 0 0 0 0
0 0 0 0 0 0 0 0 0 0 0 0 0 0 0 0 0 0 0 0 0 0 0 0 0 0 0 0 0 0 0 0 0 0 0 0 0 0 0 0 0 0 0
0 0 0 0 0 0 0 0 0 0 0 0 0 0 0 0 0 0 0 0 0 0 0 0 0 0 0 0 0 0 0 0 0 0 0 0 0 0 0 0 0 0 0
0 0 0 0 0 0 0 0 0 0 0 0 0 0 0 0 0 0 0 0 0 0 0 0 0 0 0 0 0 0 0 0 0 0 0 0 0 0 0 0 0 0 0
0 0 0 0 0 0 0 0 0 0 0 0 0 0 0 0 0 0 0 0 0 0 0 0 0 0 0 0 0 0 0 0 0 0 0 0 0 0 0 0 0 0 0
0 0 0 0 0 0 0 0 0 0 0 0 0 0 0 0 0 0 0 0 0 0 0 0 0 0 0 0 0 0 0 0 0 0 0 0 0 0 0 0 0 0 0
0 0 0 0 0 0 0 0 0 0 0 0 0 0 0 0 0 0 0 0 0 0 0 0 0 0 0 0 0 0 0 0 0 0 0 0 0 0 0 0 0 0 0
0 0 0 0 0 0 0 0 0 0 0 0 0 0 0 0 0 0 0 0 0 0 0 0 0 0 0 0 0 0 0 0 0 0 0 0 0 0 0 0 0 0 0
0 0 0 0 0 0 0 0 0 0 0 0 0 0 0 0 0 0 0 0 0 0 0 0 0 0 0 0 0 0 0 0 0 0 0 0 0 0 0 0 0 0 0
0 0 0 0 0 0 0 0 0 0 0 0 0 0 0 0 0 0 0 0 0 0 0 0 0 0 0 0 0 0 0 0 0 0 0 0 0 0 0 0 0 0 0
0 0 0 0 0 0 0 0 0 0 0 0 0 0 0 0 0 0 0 0 0 0 0 0 0 0 0 0 0 0 0 0 0 0 0 0 0 0 0 0 0 0 0
0 0 0 0 0 0 0 0 0 0 0 0 0 0 0 0 0 0 0 0 0 0 0 0 0 0 0 0 0 0 0 0 0 0 0 0 0 0 0 0 0 0 0
0 0 0 0 0 0 0 0 0 0 0 0 0 0 0 0 0 0 0 0 0 0 0 0 0 0 0 0 0 0 0 0 0 0 0 0 0 0 0 0 0 0 0
0 0 0 0 0 0 0 0 0 0 0 0 0 0 0 0 0 0 0 0 0 0 0 0 0 0 0 0 0 0 0 0 0 0 0 0 0 0 0 0 0 0 0
0 0 0 0 0 0 0 0 0 0 0 0 0 0 0 0 0 0 0 0 0 0 0 0 0 0 0 0 0 0 0 0 0 0 0 0 0 0 0 0 0 0 0
0 0 0 0 0 0 0 0 0 0 0 0 0 0 0 0 0 0 0 0 0 0 0 0 0 0 0 0 0 0 0 0 0 0 0 0 0 0 0 0 0 0 0
0 0 0 0 0 0 0 0 0 0 0 0 0 0 0 0 0 0 0 0 0 0 0 0 0 0 0 0 0 0 0 0 0 0 0 0 0 0 0 0 0 0 0
0 0 0 0 0 0 0 0 0 0 0 0 0 0 0 0 0 0 0 0 0 0 0 0 0 0 0 0 0 0 0 0 0 0 0 0 0 0 0 0 0 0 0
0 0 0 0 0 0 0 0 0 0 0 0 0 0 0 0 0 0 0 0 0 0 0 0 0 0 0 0 0 0 0 0 0 0 0 0 0 0 0 0 0 0 0
0 0 0 0 0 0 0 0 0 0 0 0 0 0 0 0 0 0 0 0 0 0 0 0 0 0 0 0 0 0 0 0 0 0 0 0 0 0 0 0 0 0 0
0 0 0 0 0 0 0 0 0 0 0 0 0 0 0 0 0 0 0 0 0 0 0 0 0 0 0 0 0 0 0 0 0 0 0 0 0 0 0 0 0 0 0
Wind_Speed_500mb
73 63 58 63 63 64 67 69 68 67 62 62 58 58 61 56 53 52 48 46 45 44 42 40 39 39 38 33 32 33 33 32 31 33 38 39 40 43 51 40 44 39 35
66 70 66 65 72 67 70 74 72 72 70 70 67 65 59 60 56 51 52 51 51 49 49 48 45 44 43 42 41 41 39 38 38 39 39 44 46 50 49 50 43 41 47
80 71 77 79 71 73 75 74 74 76 76 75 74 70 68 67 63 65 61 58 56 55 54 52 51 49 49 50 48 47 46 46 44 46 42 21 32 39 41 45 48 51 54
85 80 80 74 82 82 76 73 76 79 78 80 82 80 81 78 71 67 62 60 59 58 57 57 56 55 55 56 54 52 53 52 55 54 55 57 61 52 49 49 48 57 66
93 85 87 84 80 81 83 79 81 81 82 81 87 88 87 84 77 74 66 63 60 60 61 62 62 61 59 60 59 59 60 60 60 63 61 63 68 71 75 72 68 71 71
79 86 87 85 85 83 79 80 89 85 82 82 85 93 91 87 82 79 73 69 66 64 64 65 66 65 66 65 63 63 65 65 65 66 68 68 72 67 72 82 91 90 92
63 68 75 82 82 92 90 77 86 85 81 84 88 88 88 86 84 77 75 73 71 69 68 65 63 63 65 66 66 67 68 69 69 68 71 72 73 74 83 88 96 95 105
55 65 68 71 79 82 90 84 85 83 82 84 83 80 85 87 82 81 78 74 70 66 63 60 61 59 57 57 59 60 61 63 65 66 68 68 71 69 77 84 84 87 86
70 54 50 65 69 78 85 91 88 86 83 81 77 79 81 84 80 75 75 71 66 61 56 55 56 54 51 50 50 52 54 56 57 56 53 56 62 65 69 73 78 76 77
67 75 62 56 59 65 76 87 91 88 84 78 75 78 78 75 73 75 73 67 59 52 52 51 50 46 45 45 45 46 47 50 50 53 57 61 60 62 67 71 70 77 78
71 64 65 53 45 50 61 71 83 92 89 85 80 77 76 76 75 73 67 62 57 53 52 49 47 47 44 40 43 48 49 52 55 58 60 60 59 59 60 57 60 57 74
46 54 53 60 49 40 48 55 64 82 94 93 86 82 76 74 74 71 67 62 57 55 52 50 48 48 43 43 47 49 52 55 54 54 57 53 52 52 58 57 58 58 52
34 38 46 64 54 48 44 47 53 60 73 77 75 74 71 68 68 65 63 61 59 56 52 51 53 46 45 47 49 50 53 53 52 52 55 56 56 62 58 58 59 61 61
34 36 38 48 51 52 53 51 51 52 58 65 70 69 66 63 61 58 59 59 58 58 59 56 52 51 52 51 51 50 52 53 57 54 54 57 61 58 61 65 61 58 56
35 35 42 45 45 46 48 49 48 51 54 59 61 60 58 58 58 58 57 57 57 55 53 53 51 50 49 50 51 52 51 52 54 52 62 58 58 62 58 58 56 58 57
51 42 43 48 50 49 48 46 46 47 48 49 49 51 53 55 55 54 53 52 52 51 50 47 48 49 50 50 47 45 42 44 47 50 53 52 52 49 48 47 41 37 33
79 61 58 54 52 51 50 52 48 46 46 45 46 46 46 45 45 45 46 46 45 43 42 42 41 38 36 35 32 32 34 38 41 43 44 44 42 41 38 31 23 27 31
95 91 75 59 55 50 49 47 50 50 48 46 44 42 41 41 42 43 43 43 42 40 38 36 34 32 30 32 33 34 32 32 33 34 32 28 30 30 30 29 28 32 30
80 83 79 70 55 54 56 57 55 54 52 47 44 42 41 41 42 43 42 41 40 39 37 34 34 33 33 32 29 27 23 22 25 26 25 23 24 27 24 26 27 29 26
106 101 92 62 60 69 67 69 66 61 57 52 48 45 44 43 42 41 41 41 40 38 36 36 37 34 28 25 23 21 18 19 19 20 22 20 23 27 26 27 21 22 18
101 104 106 83 75 74 75 76 71 68 59 56 52 49 46 44 43 43 44 43 42 41 39 37 32 28 22 17 13 13 14 17 19 20 19 20 20 21 25 24 21 21 19
93 101 111 93 79 80 88 80 77 68 64 62 59 55 51 50 50 49 48 46 43 41 39 36 30 24 18 15 13 15 14 14 16 16 16 17 16 18 22 23 17 14 13
99 91 100 109 105 86 100 93 84 80 77 72 66 60 56 54 53 51 49 47 46 44 40 36 30 24 19 17 16 12 10 7 7 7 9 9 13 16 19 21 20 16 16
92 95 84 87 91 93 101 98 88 86 80 77 73 66 60 58 56 52 50 49 48 47 42 35 29 23 19 16 13 9 8 9 8 5 5 8 11 12 15 16 18 20 21
67 82 87 80 79 80 94 96 89 87 85 79 72 65 59 58 58 57 54 52 47 36 32 30 25 21 19 17 13 11 8 5 3 2 3 1 1 4 7 11 14 16 18
46 61 75 75 72 75 85 89 86 84 80 76 71 64 62 61 61 61 60 54 44 42 39 33 26 22 19 17 17 15 12 9 5 1 1 2 4 7 10 13 15 17 21
Wind_Direction_500mb
245 244 245 239 234 230 227 228 228 231 230 229 225 227 227 225 223 222 222 225 228 230 233 233 233 237 243 250 253 255 258 263 266 267 270 275 281 279 296 280 275 277 284
248 242 239 240 235 234 231 228 229 231 231 232 232 233 235 233 233 232 230 229 231 232 235 238 239 241 246 249 251 255 258 262 262 262 271 275 282 281 278 281 282 277 274
250 245 241 241 239 235 234 231 232 232 230 232 233 235 239 239 237 235 233 232 234 236 239 241 243 245 248 252 255 257 259 263 264 264 258 255 273 289 285 282 280 282 282
248 246 244 240 237 236 237 237 236 235 233 231 234 235 237 238 236 237 237 237 238 241 243 246 247 249 250 253 257 259 261 261 262 262 263 266 270 270 283 284 282 282 284
246 245 242 240 236 234 236 242 240 237 236 234 235 236 238 242 244 246 246 245 244 245 246 249 250 252 254 256 258 260 259 261 263 266 267 269 269 270 267 275 279 282 286
247 245 243 242 237 233 233 238 235 234 236 236 236 238 239 241 244 246 247 246 247 248 249 251 253 256 257 259 262 264 264 264 266 267 269 267 269 269 272 276 281 281 283
247 244 243 238 236 232 232 235 229 231 234 233 235 237 240 242 245 248 249 250 250 250 251 254 257 261 263 263 264 265 267 268 268 270 271 273 276 280 282 282 284 279 285
259 248 247 241 235 232 229 231 227 229 232 234 235 237 240 242 244 247 250 252 255 256 259 260 261 262 264 263 264 267 268 269 270 271 273 276 278 279 281 283 286 279 280
251 247 249 240 235 232 229 228 229 230 234 236 235 236 239 241 244 247 251 253 255 258 262 263 261 261 263 262 264 264 266 269 271 276 279 278 279 278 280 281 283 284 280
254 245 251 248 237 232 231 232 232 234 235 231 233 236 239 241 244 246 249 253 257 261 264 263 263 262 260 261 262 265 267 270 272 275 274 277 280 282 285 286 290 288 288
263 259 247 242 243 237 231 232 231 231 231 230 233 238 240 240 242 245 249 252 255 258 261 261 260 260 260 262 263 265 268 269 272 272 278 279 282 286 293 297 297 294 292
284 264 248 232 237 239 235 233 232 231 232 236 242 241 241 240 242 244 248 251 253 254 257 258 257 257 257 259 262 264 265 269 270 273 273 282 282 286 288 289 287 291 286
292 267 252 229 237 239 234 230 232 232 231 232 233 236 239 240 241 243 245 246 248 250 251 252 252 255 256 257 259 258 261 263 266 271 270 267 273 279 279 279 285 285 291
293 275 247 232 234 237 234 234 233 229 227 227 229 233 235 236 238 238 238 239 241 243 244 247 250 249 250 250 249 254 257 260 262 258 263 270 274 272 275 276 280 284 286
297 271 253 241 235 232 231 232 229 226 223 223 225 228 230 231 233 234 234 237 239 242 246 248 248 245 246 245 248 249 252 256 260 255 265 270 275 277 280 282 281 277 279
287 281 253 248 241 236 232 226 220 216 214 215 218 221 223 225 228 230 232 236 239 241 242 244 245 246 245 247 250 252 253 257 260 265 271 274 277 280 279 279 286 292 295
264 269 265 253 244 237 231 229 225 221 219 216 213 213 215 218 221 224 227 228 230 232 233 234 235 238 241 247 257 263 264 267 271 271 275 283 287 292 295 295 298 296 296
257 261 265 253 242 232 228 220 214 210 207 205 205 206 208 210 214 217 220 222 224 226 228 229 233 238 244 252 258 264 271 273 274 279 286 288 288 292 296 290 291 285 279
251 257 260 254 243 229 221 215 211 208 207 207 209 211 214 217 219 221 223 224 225 227 230 232 235 240 244 254 263 271 271 267 267 275 278 285 280 283 289 290 283 284 282
252 255 262 251 238 226 220 214 211 210 213 213 217 217 220 222 224 224 225 224 224 227 228 230 232 236 237 244 252 264 265 264 267 273 282 286 293 294 290 295 300 289 293
247 247 250 247 235 225 221 216 212 212 217 217 215 216 219 223 225 226 226 225 225 224 224 224 224 225 229 242 251 260 264 264 260 260 269 275 279 283 289 295 288 287 295
246 245 245 248 237 227 221 219 217 215 216 215 214 215 221 227 230 229 228 224 223 220 216 211 207 205 211 226 244 248 253 258 258 266 267 274 291 299 293 288 284 292 297
247 247 246 250 250 230 222 220 218 215 213 212 214 217 224 229 230 229 225 219 215 211 206 199 196 197 204 217 224 222 222 232 253 277 288 287 292 296 296 290 291 294 283
254 247 243 245 243 229 222 221 218 215 213 214 216 219 222 223 221 218 214 211 207 201 197 196 196 196 200 201 201 209 221 219 221 238 274 304 305 299 285 287 297 301 298
255 244 244 244 243 229 220 218 215 214 213 213 216 218 219 217 213 209 206 200 195 192 198 193 190 191 188 189 188 194 191 179 170 214 225 297 296 294 288 301 309 304 297
257 245 238 237 237 223 215 211 209 210 213 213 214 216 215 210 206 199 190 184 189 193 188 186 184 184 181 175 179 177 174 171 164 212 16 20 6 346 349 350 344 335 332
Wind_Speed_850mb
73 63 58 63 63 64 67 69 68 67 62 62 58 58 61 56 53 52 48 46 45 44 42 40 39 39 38 33 32 33 33 32 31 33 38 39 40 43 51 40 44 39 35
66 70 66 65 72 67 70 74 72 72 70 70 67 65 59 60 56 51 52 51 51 49 49 48 45 44 43 42 41 41 39 38 38 39 39 44 46 50 49 50 43 41 47
80 71 77 79 71 73 75 74 74 76 76 75 74 70 68 67 63 65 61 58 56 55 54 52 51 49 49 50 48 47 46 46 44 46 42 21 32 39 41 45 48 51 54
85 80 80 74 82 82 76 73 76 79 78 80 82 80 81 78 71 67 62 60 59 58 57 57 56 55 55 56 54 52 53 52 55 54 55 57 61 52 49 49 48 57 66
93 85 87 84 80 81 83 79 81 81 82 81 87 88 87 84 77 74 66 63 60 60 61 62 62 61 59 60 59 59 60 60 60 63 61 63 68 71 75 72 68 71 71
79 86 87 85 85 83 79 80 89 85 82 82 85 93 91 87 82 79 73 69 66 64 64 65 66 65 66 65 63 63 65 65 65 66 68 68 72 67 72 82 91 90 92
63 68 75 82 82 92 90 77 86 85 81 84 88 88 88 86 84 77 75 73 71 69 68 65 63 63 65 66 66 67 68 69 69 68 71 72 73 74 83 88 96 95 105
55 65 68 71 79 82 90 84 85 83 82 84 83 80 85 87 82 81 78 74 70 66 63 60 61 59 57 57 59 60 61 63 65 66 68 68 71 69 77 84 84 87 86
70 54 50 65 69 78 85 91 88 86 83 81 77 79 81 84 80 75 75 71 66 61 56 55 56 54 51 50 50 52 54 56 57 56 53 56 62 65 69 73 78 76 77
67 75 62 56 59 65 76 87 91 88 84 78 75 78 78 75 73 75 73 67 59 52 52 51 50 46 45 45 45 46 47 50 50 53 57 61 60 62 67 71 70 77 78
71 64 65 53 45 50 61 71 83 92 89 85 80 77 76 76 75 73 67 62 57 53 52 49 47 47 44 40 43 48 49 52 55 58 60 60 59 59 60 57 60 57 74
46 54 53 60 49 40 48 55 64 82 94 93 86 82 76 74 74 71 67 62 57 55 52 50 48 48 43 43 47 49 52 55 54 54 57 53 52 52 58 57 58 58 52
34 38 46 64 54 48 44 47 53 60 73 77 75 74 71 68 68 65 63 61 59 56 52 51 53 46 45 47 49 50 53 53 52 52 55 56 56 62 58 58 59 61 61
34 36 38 48 51 52 53 51 51 52 58 65 70 69 66 63 61 58 59 59 58 58 59 56 52 51 52 51 51 50 52 53 57 54 54 57 61 58 61 65 61 58 56
35 35 42 45 45 46 48 49 48 51 54 59 61 60 58 58 58 58 57 57 57 55 53 53 51 50 49 50 51 52 51 52 54 52 62 58 58 62 58 58 56 58 57
51 42 43 48 50 49 48 46 46 47 48 49 49 51 53 55 55 54 53 52 52 51 50 47 48 49 50 50 47 45 42 44 47 50 53 52 52 49 48 47 41 37 33
79 61 58 54 52 51 50 52 48 46 46 45 46 46 46 45 45 45 46 46 45 43 42 42 41 38 36 35 32 32 34 38 41 43 44 44 42 41 38 31 23 27 31
95 91 75 59 55 50 49 47 50 50 48 46 44 42 41 41 42 43 43 43 42 40 38 36 34 32 30 32 33 34 32 32 33 34 32 28 30 30 30 29 28 32 30
80 83 79 70 55 54 56 57 55 54 52 47 44 42 41 41 42 43 42 41 40 39 37 34 34 33 33 32 29 27 23 22 25 26 25 23 24 27 24 26 27 29 26
106 101 92 62 60 69 67 69 66 61 57 52 48 45 44 43 42 41 41 41 40 38 36 36 37 34 28 25 23 21 18 19 19 20 22 20 23 27 26 27 21 22 18
101 104 106 83 75 74 75 76 71 68 59 56 52 49 46 44 43 43 44 43 42 41 39 37 32 28 22 17 13 13 14 17 19 20 19 20 20 21 25 24 21 21 19
93 101 111 93 79 80 88 80 77 68 64 62 59 55 51 50 50 49 48 46 43 41 39 36 30 24 18 15 13 15 14 14 16 16 16 17 16 18 22 23 17 14 13
99 91 100 109 105 86 100 93 84 80 77 72 66 60 56 54 53 51 49 47 46 44 40 36 30 24 19 17 16 12 10 7 7 7 9 9 13 16 19 21 20 16 16
92 95 84 87 91 93 101 98 88 86 80 77 73 66 60 58 56 52 50 49 48 47 42 35 29 23 19 16 13 9 8 9 8 5 5 8 11 12 15 16 18 20 21
67 82 87 80 79 80 94 96 89 87 85 79 72 65 59 58 58 57 54 52 47 36 32 30 25 21 19 17 13 11 8 5 3 2 3 1 1 4 7 11 14 16 18
46 61 75 75 72 75 85 89 86 84 80 76 71 64 62 61 61 61 60 54 44 42 39 33 26 22 19 17 17 15 12 9 5 1 1 2 4 7 10 13 15 17 21
Wind_Direction_850mb
245 244 245 239 234 230 227 228 228 231 230 229 225 227 227 225 223 222 222 225 228 230 233 233 233 237 243 250 253 255 258 263 266 267 270 275 281 279 296 280 275 277 284
248 242 239 240 235 234 231 228 229 231 231 232 232 233 235 233 233 232 230 229 231 232 235 238 239 241 246 249 251 255 258 262 262 262 271 275 282 281 278 281 282 277 274
250 245 241 241 239 235 234 231 232 232 230 232 233 235 239 239 237 235 233 232 234 236 239 241 243 245 248 252 255 257 259 263 264 264 258 255 273 289 285 282 280 282 282
248 246 244 240 237 236 237 237 236 235 233 231 234 235 237 238 236 237 237 237 238 241 243 246 247 249 250 253 257 259 261 261 262 262 263 266 270 270 283 284 282 282 284
246 245 242 240 236 234 236 242 240 237 236 234 235 236 238 242 244 246 246 245 244 245 246 249 250 252 254 256 258 260 259 261 263 266 267 269 269 270 267 275 279 282 286
247 245 243 242 237 233 233 238 235 234 236 236 236 238 239 241 244 246 247 246 247 248 249 251 253 256 257 259 262 264 264 264 266 267 269 267 269 269 272 276 281 281 283
247 244 243 238 236 232 232 235 229 231 234 233 235 237 240 242 245 248 249 250 250 250 251 254 257 261 263 263 264 265 267 268 268 270 271 273 276 280 282 282 284 279 285
259 248 247 241 235 232 229 231 227 229 232 234 235 237 240 242 244 247 250 252 255 256 259 260 261 262 264 263 264 267 268 269 270 271 273 276 278 279 281 283 286 279 280
251 247 249 240 235 232 229 228 229 230 234 236 235 236 239 241 244 247 251 253 255 258 262 263 261 261 263 262 264 264 266 269 271 276 279 278 279 278 280 281 283 284 280
254 245 251 248 237 232 231 232 232 234 235 231 233 236 239 241 244 246 249 253 257 261 264 263 263 262 260 261 262 265 267 270 272 275 274 277 280 282 285 286 290 288 288
263 259 247 242 243 237 231 232 231 231 231 230 233 238 240 240 242 245 249 252 255 258 261 261 260 260 260 262 263 265 268 269 272 272 278 279 282 286 293 297 297 294 292
284 264 248 232 237 239 235 233 232 231 232 236 242 241 241 240 242 244 248 251 253 254 257 258 257 257 257 259 262 264 265 269 270 273 273 282 282 286 288 289 287 291 286
292 267 252 229 237 239 234 230 232 232 231 232 233 236 239 240 241 243 245 246 248 250 251 252 252 255 256 257 259 258 261 263 266 271 270 267 273 279 279 279 285 285 291
293 275 247 232 234 237 234 234 233 229 227 227 229 233 235 236 238 238 238 239 241 243 244 247 250 249 250 250 249 254 257 260 262 258 263 270 274 272 275 276 280 284 286
297 271 253 241 235 232 231 232 229 226 223 223 225 228 230 231 233 234 234 237 239 242 246 248 248 245 246 245 248 249 252 256 260 255 265 270 275 277 280 282 281 277 279
287 281 253 248 241 236 232 226 220 216 214 215 218 221 223 225 228 230 232 236 239 241 242 244 245 246 245 247 250 252 253 257 260 265 271 274 277 280 279 279 286 292 295
264 269 265 253 244 237 231 229 225 221 219 216 213 213 215 218 221 224 227 228 230 232 233 234 235 238 241 247 257 263 264 267 271 271 275 283 287 292 295 295 298 296 296
257 261 265 253 242 232 228 220 214 210 207 205 205 206 208 210 214 217 220 222 224 226 228 229 233 238 244 252 258 264 271 273 274 279 286 288 288 292 296 290 291 285 279
251 257 260 254 243 229 221 215 211 208 207 207 209 211 214 217 219 221 223 224 225 227 230 232 235 240 244 254 263 271 271 267 267 275 278 285 280 283 289 290 283 284 282
252 255 262 251 238 226 220 214 211 210 213 213 217 217 220 222 224 224 225 224 224 227 228 230 232 236 237 244 252 264 265 264 267 273 282 286 293 294 290 295 300 289 293
247 247 250 247 235 225 221 216 212 212 217 217 215 216 219 223 225 226 226 225 225 224 224 224 224 225 229 242 251 260 264 264 260 260 269 275 279 283 289 295 288 287 295
246 245 245 248 237 227 221 219 217 215 216 215 214 215 221 227 230 229 228 224 223 220 216 211 207 205 211 226 244 248 253 258 258 266 267 274 291 299 293 288 284 292 297
247 247 246 250 250 230 222 220 218 215 213 212 214 217 224 229 230 229 225 219 215 211 206 199 196 197 204 217 224 222 222 232 253 277 288 287 292 296 296 290 291 294 283
254 247 243 245 243 229 222 221 218 215 213 214 216 219 222 223 221 218 214 211 207 201 197 196 196 196 200 201 201 209 221 219 221 238 274 304 305 299 285 287 297 301 298
255 244 244 244 243 229 220 218 215 214 213 213 216 218 219 217 213 209 206 200 195 192 198 193 190 191 188 189 188 194 191 179 170 214 225 297 296 294 288 301 309 304 297
257 245 238 237 237 223 215 211 209 210 213 213 214 216 215 210 206 199 190 184 189 193 188 186 184 184 181 175 179 177 174 171 164 212 16 20 6 346 349 350 344 335 332